SCP
0 0 0 0 0 0 0 0 0 0 0 0 0 0 0 0 0 0 0 0 0 0 0 1 1 1 1 1 0 0 0 0 0 0 0 0 0 0 0 0 0 0 0 0 0 0 0 0 0
0 0 0 0 0 0 0 0 0 0 0 0 0 0 0 0 0 0 0 0 0 0 0 0 1 1 1 1 0 0 0 0 0 0 0 0 0 0 0 0 0 0 0 0 0 0 0 0 0
0 0 0 0 0 0 0 0 0 0 0 0 0 0 0 0 0 0 0 0 0 0 0 1 1 1 1 0 0 0 0 0 0 0 0 0 0 0 0 0 0 0 0 0 0 0 0 0 0
0 0 0 0 0 0 0 0 0 0 0 0 0 0 0 0 0 0 0 0 1 0 0 1 1 1 0 0 0 0 0 0 0 0 0 0 0 0 0 0 0 0 0 0 0 0 0 0 0
0 0 0 0 0 0 0 0 0 0 0 0 0 0 0 0 0 1 1 1 1 1 1 1 1 1 1 0 0 0 0 0 0 0 0 0 0 0 0 0 0 0 0 0 0 0 0 0 0
0 0 0 0 0 0 0 0 0 0 0 0 0 0 0 0 1 1 1 1 1 1 1 1 1 1 1 0 0 0 0 0 0 0 0 0 0 0 0 0 0 0 0 0 0 0 0 0 0
0 0 0 0 0 0 0 0 0 0 0 0 0 0 0 0 1 1 1 1 1 1 1 1 1 1 1 1 0 0 0 0 0 0 0 0 0 0 0 0 0 0 0 0 0 0 0 0 0
0 0 0 0 0 0 0 0 0 0 0 0 0 0 0 0 1 1 1 1 1 1 1 1 1 1 1 1 0 0 0 0 0 0 0 0 0 0 0 0 0 0 0 0 0 0 0 0 0
0 0 0 0 0 0 0 0 0 0 0 0 0 0 1 1 1 1 1 1 1 1 1 1 1 1 1 1 0 0 0 0 0 0 0 0 0 0 0 0 0 0 0 0 0 0 0 0 0
0 0 0 0 0 0 0 0 0 0 0 0 0 1 1 1 1 1 1 1 1 1 1 1 0 0 0 0 0 0 0 0 0 0 0 0 0 0 0 0 0 0 0 0 0 0 0 0 0
-0 0 0 0 0 0 0 0 0 0 0 0 0 1 1 1 1 1 1 1 1 1 1 0 0 0 0 0 0 0 0 0 0 0 0 0 0 0 0 0 0 0 0 0 0 0 0 0 0
-0 0 0 0 0 0 0 0 0 0 0 0 0 1 1 1 1 1 0 1 1 1 0 0 0 0 0 0 0 0 0 0 0 0 0 0 0 0 0 0 0 0 0 0 0 0 0 0 0
0 0 0 0 0 0 0 0 0 0 0 0 0 1 1 1 0 0 0 0 0 0 0 0 0 0 0 0 0 0 0 0 0 0 0 0 0 0 0 0 0 0 0 0 0 0 0 0 0
0 0 0 0 0 0 0 0 0 0 0 0 0 0 1 1 0 0 0 0 0 0 0 0 0 0 0 0 0 0 0 0 0 0 0 0 0 0 0 0 0 0 0 0 0 0 0 0 0
0 0 0 0 0 0 0 0 0 0 0 0 0 0 1 1 1 1 1 1 0 0 0 0 0 0 0 0 0 0 0 0 0 0 0 0 0 0 0 0 0 0 0 0 0 0 0 0 0
0 0 0 0 0 0 0 0 0 0 0 0 0 0 1 1 1 1 1 1 1 1 1 0 0 0 0 0 0 0 0 0 0 0 0 0 0 0 0 0 0 0 0 0 0 0 0 0 0
0 0 0 0 0 0 0 0 0 0 0 0 0 0 1 1 1 1 1 1 1 1 1 1 0 0 0 0 0 0 0 0 0 0 0 0 0 0 0 0 0 0 0 0 0 0 0 0 0
0 0 0 0 0 0 0 0 0 0 0 0 0 0 1 1 1 1 1 1 1 1 1 1 0 0 0 0 0 0 0 0 0 0 0 0 0 0 0 0 0 0 0 0 0 0 0 0 0
0 0 0 0 0 0 0 0 0 0 0 0 0 0 0 1 1 1 1 1 1 1 1 1 0 0 1 0 0 0 0 0 0 0 0 0 0 0 0 0 0 0 0 0 0 0 0 0 0
0 0 0 0 0 0 0 0 0 0 0 0 0 0 1 1 1 1 1 1 1 1 1 1 1 1 1 0 0 0 0 0 0 0 0 0 0 0 0 0 0 0 0 0 0 0 0 0 0
0 0 0 0 0 0 0 0 0 0 0 0 0 0 1 0 1 1 1 1 1 1 1 1 1 1 1 0 0 0 0 0 0 0 0 0 0 0 0 0 0 0 0 0 0 0 0 0 0
0 0 0 0 0 0 0 0 0 0 0 0 0 0 0 0 0 1 1 1 1 1 1 1 1 1 0 0 0 0 0 0 0 0 0 0 0 0 0 0 0 0 0 0 0 0 0 0 0
0 0 0 0 0 0 0 0 0 0 0 0 0 0 0 0 0 0 1 1 1 1 1 0 0 0 0 0 0 0 0 0 0 0 0 0 0 0 0 0 0 0 0 0 0 0 0 0 0
0 0 0 0 0 0 0 0 0 0 0 0 0 0 0 0 0 0 0 0 0 0 0 0 0 0 0 0 0 0 0 0 0 0 0 0 0 0 0 0 0 0 0 0 0 0 0 0 0
0 0 0 0 0 0 0 0 0 0 0 0 0 0 0 0 0 0 0 0 0 0 0 0 0 0 0 0 0 0 0 0 0 0 0 0 0 0 0 0 0 0 0 0 0 0 0 0 0
0 0 0 0 0 0 0 0 0 0 0 0 0 0 0 0 0 0 0 0 0 0 0 0 0 0 0 0 0 0 0 0 0 0 0 0 0 0 0 0 0 0 0 0 0 0 0 0 0
0 0 0 0 0 0 0 0 0 0 0 0 0 0 0 0 0 0 0 0 0 0 0 0 0 0 0 0 0 0 0 0 0 0 0 0 0 0 0 0 0 0 0 0 0 0 0 0 0
0 0 0 0 0 0 0 0 0 0 0 0 0 0 0 0 0 0 0 0 0 0 0 0 0 0 0 0 0 0 0 0 0 0 0 0 0 0 0 0 0 0 0 0 0 0 0 0 0
0 0 0 0 0 0 0 0 0 0 0 0 0 0 0 0 0 0 0 0 0 0 0 0 0 0 0 0 0 0 0 0 0 0 0 0 0 0 0 0 0 0 0 0 0 0 0 0 0
0 0 0 0 0 0 0 0 0 0 0 0 0 0 0 0 0 0 0 0 0 1 0 0 0 0 0 0 0 0 0 0 0 0 0 0 -0 -0 0 0 0 0 0 0 0 0 0 0 0
Wind_Speed
3 2 2 2 4 4 2 4 2 1 2 2 6 8 7 5 4 4 3 11 13 12 9 12 14 14 13 13 12 12 12 12 12 12 11 11 12 12 11 12 11 11 10 11 10 9 9 8 8
2 2 2 4 5 2 4 2 2 2 4 6 7 8 7 6 6 8 6 11 14 12 9 10 14 13 13 13 12 11 12 12 12 11 11 11 11 11 11 11 11 10 9 9 9 8 8 7 7
2 1 3 3 2 3 4 2 1 1 2 3 4 4 5 5 6 6 8 13 12 10 8 11 15 14 13 13 12 11 11 11 11 11 11 11 10 10 9 10 10 10 9 8 8 7 6 6 6
1 3 4 3 3 5 5 5 1 2 2 3 5 5 3 4 6 8 13 14 13 9 8 10 15 14 13 12 12 12 11 11 11 11 11 10 10 9 9 9 9 9 8 7 7 6 6 5 5
3 4 3 2 4 5 5 4 1 1 1 3 6 6 3 4 11 15 14 13 12 9 7 9 13 13 13 12 12 12 11 10 10 10 10 10 9 8 8 8 8 8 7 7 6 5 5 5 4
3 4 3 2 5 5 3 2 2 2 3 4 6 5 2 5 12 13 12 11 11 10 7 8 12 12 12 12 11 11 10 10 9 8 9 9 9 8 8 8 8 7 7 7 6 5 5 4 4
3 3 2 3 4 5 5 1 2 2 3 2 6 6 3 4 8 11 11 11 10 9 7 5 6 8 11 11 10 10 9 9 9 8 8 8 8 8 8 8 8 7 7 6 6 6 5 5 5
5 3 1 2 3 5 4 1 2 3 2 3 6 8 5 6 8 10 10 9 9 7 6 5 4 4 4 6 9 9 9 9 8 8 8 8 8 8 8 7 7 7 7 6 6 6 6 5 5
3 3 3 5 3 4 3 2 1 2 3 2 3 5 7 11 11 11 9 8 7 7 4 4 4 4 4 4 6 7 8 8 7 5 7 6 3 3 4 5 6 7 7 6 6 6 5 5 5
4 4 8 6 4 4 4 2 0 2 3 2 5 7 10 12 12 11 10 9 7 7 6 4 4 4 4 4 3 2 3 3 3 3 3 2 2 2 3 4 5 5 5 5 5 6 5 4 2
4 7 7 6 6 5 4 3 1 4 2 4 8 11 11 11 10 10 8 9 8 7 6 5 5 5 4 3 3 2 1 2 2 3 3 2 1 1 1 1 2 2 3 2 2 3 1 1 1
3 6 6 6 5 4 4 1 1 3 5 7 11 12 11 12 10 10 9 7 7 6 5 5 5 5 4 4 3 2 1 2 2 2 3 2 1 1 1 1 1 1 1 1 1 1 1 1 2
4 6 7 6 5 5 3 3 2 1 4 6 10 11 11 10 9 8 9 9 8 6 4 4 5 5 4 4 3 3 2 2 2 2 3 3 2 2 2 1 1 1 1 1 1 1 1 1 2
5 5 7 6 5 3 3 2 2 3 4 7 10 10 9 10 10 8 8 8 8 8 6 5 5 5 5 4 3 3 3 2 2 2 2 3 3 2 2 2 1 1 1 1 2 2 1 1 1
4 4 7 6 4 3 3 2 2 5 6 7 8 9 9 8 8 8 9 8 7 7 6 6 6 6 5 4 3 3 3 3 2 2 2 3 3 3 2 2 2 1 1 1 1 1 1 1 0
4 2 4 7 3 3 4 3 4 4 6 7 7 9 8 7 7 7 7 7 6 7 6 6 6 6 5 4 3 2 2 3 2 2 2 2 3 3 2 2 2 2 1 1 1 1 1 0 0
3 2 5 7 3 1 2 4 4 3 6 7 8 8 8 7 6 6 7 7 7 7 6 6 6 6 5 4 2 2 2 2 2 2 2 2 2 3 3 2 2 2 2 1 1 1 1 1 0
5 4 4 5 4 1 0 3 3 2 5 6 7 7 7 8 7 7 7 6 6 6 6 6 6 5 5 3 3 2 2 1 1 2 2 3 2 3 3 2 1 2 2 1 1 1 1 1 1
6 6 7 7 4 1 2 3 3 2 4 5 6 6 5 6 5 6 6 6 6 5 6 6 6 5 4 3 2 2 1 1 1 1 2 3 3 3 2 2 1 2 2 1 1 1 1 0 1
7 8 8 5 4 2 2 2 1 1 3 6 7 7 6 4 4 5 5 5 4 5 6 6 5 5 4 3 2 2 2 1 1 1 1 2 3 3 3 2 2 2 2 1 1 2 1 0 1
9 8 7 6 3 1 2 3 3 3 0 3 5 7 7 9 8 6 6 5 5 4 5 5 5 5 4 4 2 2 2 2 1 1 0 1 2 3 2 2 2 2 2 2 2 2 3 1 0
8 8 5 3 1 2 1 2 6 3 3 3 4 6 8 8 8 8 7 6 6 5 4 4 4 3 3 3 3 4 3 2 2 1 1 1 1 2 2 2 2 2 1 2 2 2 2 3 1
8 5 2 1 2 0 1 1 6 2 3 3 4 6 6 8 9 8 8 8 7 6 5 4 4 3 3 3 3 3 2 2 1 1 1 1 0 1 1 2 2 2 1 1 1 1 2 2 2
5 2 4 4 4 2 3 3 5 3 5 3 4 5 6 7 7 7 7 7 6 5 5 5 5 3 3 3 3 4 3 3 3 2 1 1 0 0 1 2 1 1 1 1 1 1 2 2 2
1 3 3 4 2 5 2 2 6 5 3 4 4 6 6 7 7 7 7 7 7 6 6 5 5 4 3 3 3 3 3 3 3 3 2 1 1 0 0 1 1 1 1 1 1 1 1 1 1
5 6 7 4 5 4 1 3 5 4 1 1 3 5 5 6 6 7 8 9 8 8 6 6 6 4 4 3 2 2 3 2 2 2 2 2 2 2 1 1 1 1 1 1 1 1 1 1 1
2 2 6 6 1 1 2 2 4 3 2 2 3 5 5 5 6 7 7 7 8 8 7 7 6 5 4 4 3 3 3 3 3 2 2 2 2 2 2 1 1 1 1 1 1 1 0 1 1
4 3 4 4 2 2 2 2 4 3 2 0 2 3 4 4 4 5 6 6 6 6 6 5 5 5 4 4 3 3 2 3 3 3 2 2 2 2 2 2 1 1 0 1 1 1 1 1 1
2 2 3 3 4 4 2 5 5 6 4 3 3 3 4 4 5 5 4 5 5 5 5 5 5 4 3 3 3 2 2 2 2 2 2 2 2 3 3 2 2 1 0 0 1 1 1 1 0
4 4 5 4 2 3 3 6 3 5 4 4 4 3 3 4 5 5 5 5 5 5 5 5 4 4 4 3 3 3 2 2 2 1 1 2 2 2 3 2 1 1 0 0 1 1 0 1 1
Wind_Direction
219 207 137 71 51 44 284 256 153 55 42 68 89 94 97 88 124 150 155 143 139 147 152 146 141 134 130 126 124 121 120 120 120 119 117 116 118 118 118 120 121 122 124 125 124 123 124 120 117
207 182 68 58 76 34 285 252 94 155 154 115 93 90 83 72 92 117 129 147 144 147 149 147 143 138 136 133 131 130 127 127 128 127 125 124 125 126 126 127 126 125 127 130 130 130 131 127 122
234 167 88 72 101 186 257 296 23 78 127 111 100 82 95 119 118 134 149 145 139 142 146 151 146 143 141 139 137 137 135 133 135 136 135 134 133 134 134 135 134 133 132 134 133 135 134 132 129
91 52 52 72 240 237 238 265 290 25 52 63 107 82 69 113 132 135 139 140 137 138 143 151 148 146 145 144 143 144 143 141 141 142 142 142 142 142 143 144 143 141 141 141 142 144 143 140 140
74 77 53 337 267 254 252 253 243 56 88 80 91 97 63 53 114 130 139 140 138 139 144 150 147 148 149 150 150 150 150 149 146 146 149 150 149 148 149 151 150 149 150 151 155 156 156 161 163
54 75 90 259 275 286 279 227 118 95 105 106 97 97 98 116 125 138 137 138 139 140 144 147 148 149 152 155 157 156 156 155 152 152 153 154 154 155 155 157 159 160 161 163 166 171 176 181 184
126 115 190 225 278 291 285 256 132 128 112 130 125 109 122 140 139 139 134 132 132 134 137 141 149 151 154 156 157 157 158 155 154 152 154 158 164 168 168 170 173 173 174 177 181 187 196 204 209
154 111 282 256 260 281 290 352 131 136 137 129 119 129 170 177 145 127 126 125 126 129 137 143 140 140 146 155 158 156 154 150 150 152 159 163 171 178 178 180 188 189 187 190 198 205 214 223 229
123 90 246 238 225 264 295 2 20 111 108 77 103 134 164 144 131 120 117 115 122 129 142 144 141 139 144 154 160 155 155 150 148 156 164 162 164 173 179 183 187 194 199 204 212 223 226 233 243
131 173 232 228 218 248 270 259 43 71 71 72 83 93 124 130 127 126 133 135 140 153 159 153 144 141 139 152 137 138 146 149 150 151 150 139 147 174 178 191 197 206 206 213 220 232 238 239 243
180 202 237 252 245 243 258 280 76 129 175 169 149 145 139 129 132 134 143 147 152 161 158 160 158 153 150 140 134 134 129 142 158 157 148 142 141 153 176 171 217 232 227 234 248 254 245 233 230
225 245 243 252 250 234 237 213 108 157 197 173 151 143 142 142 145 147 153 157 152 158 165 163 163 152 147 135 136 140 148 156 166 169 155 145 141 148 166 170 189 209 233 229 235 236 233 239 246
254 259 267 264 257 242 211 205 154 194 189 144 136 135 142 149 151 154 156 154 153 159 159 164 158 150 146 135 149 153 173 172 171 165 159 153 156 165 172 176 162 194 201 197 203 230 230 233 250
245 263 278 275 268 248 168 231 130 225 158 137 137 145 153 155 152 148 148 154 158 158 157 166 165 161 148 144 156 157 166 166 155 153 159 157 154 162 162 163 161 195 206 203 203 206 210 218 222
271 298 303 281 258 234 118 339 219 207 155 148 145 150 153 155 148 152 159 161 161 158 156 164 155 147 144 148 152 151 160 153 154 164 166 163 156 164 162 157 165 187 191 192 194 193 160 183 211
336 317 286 280 266 254 124 238 254 205 157 154 150 149 150 156 156 155 152 153 154 151 152 157 150 141 144 144 137 144 157 153 166 170 165 170 167 164 156 159 171 163 153 146 160 174 126 106 112
341 262 262 286 285 271 132 217 251 211 157 155 151 151 150 149 151 151 154 154 156 156 151 147 139 141 145 139 128 127 137 149 159 153 156 163 160 154 147 157 160 154 134 130 171 133 140 144 179
254 259 267 270 293 5 249 237 250 191 151 159 152 154 154 155 162 158 154 156 153 149 144 142 140 145 140 127 106 83 82 112 124 143 152 149 149 144 134 135 143 133 116 109 110 129 120 146 180
246 261 269 264 261 326 253 241 250 181 148 154 159 162 162 160 147 138 147 150 145 141 139 143 145 150 145 138 138 140 146 146 122 161 151 146 142 139 134 139 140 136 136 156 148 139 114 79 90
254 260 265 274 267 205 237 272 264 172 171 173 171 163 160 150 129 137 142 134 146 161 150 146 149 153 157 158 161 157 150 163 159 140 120 139 142 148 148 149 149 146 137 127 131 130 131 186 115
260 243 242 238 285 355 57 332 298 292 134 143 161 158 159 160 159 163 158 151 148 153 160 155 158 158 155 147 126 104 79 66 61 67 85 140 156 157 147 147 139 141 138 154 171 154 148 164 256
257 248 243 239 174 279 121 274 285 264 282 183 175 169 168 161 158 158 158 159 161 159 142 130 137 135 139 136 135 140 141 150 191 176 170 166 163 157 151 141 134 136 137 158 179 150 152 145 171
236 245 241 213 163 346 354 143 280 284 261 244 197 179 170 162 159 160 161 162 157 148 139 132 123 117 115 123 140 138 134 154 141 119 122 119 117 143 140 130 128 133 138 141 141 131 134 146 164
241 345 10 37 63 304 246 177 262 244 230 229 200 183 173 162 156 154 154 146 139 137 135 132 129 131 134 128 131 138 139 136 123 119 128 134 70 73 112 123 118 124 125 137 156 147 143 157 163
303 89 26 355 356 254 231 173 244 259 226 192 199 187 175 166 157 152 151 148 148 149 149 147 146 146 150 142 143 149 151 150 152 153 150 146 139 157 219 130 129 130 131 143 129 121 117 142 155
233 156 162 202 223 263 310 217 249 268 271 171 166 166 160 161 161 164 162 160 162 163 161 158 157 155 159 156 164 162 153 155 166 167 157 170 184 193 185 148 149 140 125 116 117 108 124 118 139
183 197 175 149 186 208 260 274 296 332 8 58 112 131 142 155 163 172 166 165 164 164 168 167 161 161 169 169 167 168 164 162 171 178 162 167 183 176 157 144 130 133 131 129 123 107 149 130 144
152 149 94 113 148 245 267 253 251 257 259 59 128 157 156 150 147 160 162 166 169 168 165 161 161 169 172 174 178 175 174 172 174 167 169 170 176 159 144 145 141 129 133 131 118 123 151 116 119
123 91 109 123 152 161 234 260 224 206 212 200 202 180 164 157 160 160 162 161 150 146 148 152 156 161 168 175 175 155 157 169 161 169 187 181 168 157 158 165 161 154 181 149 137 171 131 116 335
151 161 149 153 209 165 178 261 253 196 202 194 198 190 165 164 166 161 155 148 143 146 150 149 158 158 159 155 150 155 151 146 145 168 184 172 172 168 163 156 144 132 118 140 156 201 166 184 226